[[{"header":{"parameterUnit":"m.s-1","parameterCategory":1,"la1":30.2991,"la2":30.254,"lo1":-89.0895,"lo2":-89.0444,"dy":0.0017,"dx":0.0017,"nx":28,"ny":28,"refTime":"2024-02-07T03:00:00:Z","depth":0,"parameterNumber":2,"parameterNumberName":"U-component_of_WINDS"},"data":[0,0,0,0,0,0,0,0,0,0,0,0,0,0,0,0,0,0,0,0,0,0,0,0,0,0,0,0,0,0,0,0,0,0,0,0,0,0,0,0,0,0,0,0,0,0,0,0,0,0,0,0,0,0,0,0,0,0,-3.1225,-3.1226,0,-3.129,-3.1291,-3.1291,-3.1234,-3.1231,-3.1229,-3.1227,-3.1296,-3.13,-3.1304,0,0,0,0,0,0,0,0,0,0,0,0,0,-3.1056,-3.106,-3.1225,-3.1226,-3.1227,-3.129,-3.1291,-3.1292,-3.1234,-3.1231,-3.1229,-3.1226,-3.1295,-3.13,-3.1304,0,0,0,0,0,0,0,0,0,0,0,0,0,-3.1126,-3.1061,-3.1225,-3.1206,-3.1205,-3.129,-3.1291,-3.1292,-3.1235,-3.1231,-3.1228,-3.1224,-3.1293,-3.1299,-3.1305,-3.1413,0,0,-3.1324,-3.1326,0,0,0,0,0,0,0,0,-3.1122,-3.1133,-3.1208,-3.1207,-3.1206,-3.125,-3.1256,-3.1333,-3.1236,-3.1224,-3.1227,-3.1223,-3.1284,-3.129,-3.131,-3.1416,-3.1419,-3.1324,-3.1328,-3.133,-3.1332,0,0,0,0,0,0,0,-3.1118,-3.1129,-3.1251,-3.1209,-3.1208,-3.1195,-3.1201,-3.127,-3.1273,-3.1224,-3.122,-3.1229,-3.1283,-3.1305,-3.1312,-3.142,-3.1324,-3.1329,-3.1333,-3.1335,-3.162,-3.1624,0,0,0,0,0,0,-3.1114,-3.1126,-3.1249,-3.1253,-3.1155,-3.1201,-3.1208,-3.124,-3.1272,-3.1273,-3.1232,-3.1226,-3.1296,-3.1305,-3.1314,-3.1444,-3.133,-3.1336,-3.1339,-3.1616,-3.1621,-3.1625,0,0,0,0,0,0,-3.1111,-3.1126,-3.1246,-3.1188,-3.1203,-3.1208,-3.1244,-3.1243,-3.1265,-3.1277,-3.1278,-3.1253,-3.1294,-3.1305,-3.1389,-3.1445,-3.1339,-3.1344,-3.1612,-3.1618,-3.1623,-3.1704,0,0,0,0,0,0,-3.1106,-3.1125,-3.1165,-3.119,-3.1206,-3.132,-3.1247,-3.1247,-3.1275,-3.1268,-3.1298,-3.1299,-3.1292,-3.138,-3.1395,-3.1452,-3.1349,-3.1607,-3.1614,-3.1621,-3.1696,-3.1712,-3.1725,0,0,0,0,0,-3.11,-3.1186,-3.1167,-3.1183,-3.1256,-3.1323,-3.1332,-3.1321,-3.128,-3.1321,-3.1329,-3.1299,-3.1436,-3.1389,-3.1405,-3.1465,-3.1603,-3.1612,-3.1621,-3.169,-3.1709,-3.1725,0,0,0,0,0,0,-3.1168,-3.1188,-3.1169,-3.1264,-3.1292,-3.1313,-3.1364,-3.1341,-3.1382,-3.1374,-3.1359,-3.1366,-3.1455,-3.1468,-3.1415,-3.1572,-3.1513,-3.1526,-3.156,-3.1578,-3.1593,-3.1588,-3.1354,0,0,0,0,0,-3.1194,-3.1246,-3.1261,-3.1344,-3.1359,-3.136,-3.1388,-3.1377,-3.1406,-3.1418,-3.1432,-3.1462,-3.1512,-3.1546,-3.1593,-3.1697,-3.1704,-3.1746,-3.1761,-3.1773,-3.1784,-3.1842,-3.1861,-3.1654,-3.1654,-3.1654,0,0,-3.1249,-3.1266,-3.13,-3.1358,-3.1378,-3.1433,-3.137,-3.143,-3.1472,-3.1427,-3.1507,-3.1519,-3.1552,-3.1647,-3.1689,-3.1661,-3.1843,-3.1784,-3.1793,-3.1798,-3.1853,-3.1873,-3.189,-3.166,-3.1659,-3.1658,0,0,-3.1376,-3.1394,-3.1466,-3.1487,-3.1519,-3.1519,-3.1536,-3.1561,-3.1567,-3.1647,-3.1615,-3.1664,-3.1751,-3.1776,-3.18,-3.1938,-3.1912,-3.1954,-3.203,-3.2087,-3.2103,-3.2118,-3.2168,-3.2187,-3.1965,-3.1965,-3.1965,0,-3.144,-3.1521,-3.1506,-3.1569,-3.1596,-3.1558,-3.1631,-3.1653,-3.1699,-3.1719,-3.1686,-3.1794,-3.1814,-3.1915,-3.1949,-3.1969,-3.199,-3.1951,-3.2102,-3.2116,-3.2129,-3.2178,-3.2197,-3.197,-3.197,-3.1969,-3.1969,0,-3.1599,-3.1655,-3.171,-3.1754,-3.1787,-3.1855,-3.1852,-3.1888,-3.1874,-3.1878,-3.1961,-3.1982,-3.2034,-3.2056,-3.2044,-3.2157,-3.2138,-3.2103,-3.2044,-3.2154,-3.22,-3.2218,-3.1977,-3.1976,-3.1974,-3.1973,0,0,-3.1771,-3.1807,-3.1827,-3.1847,-3.188,-3.1924,-3.1991,-3.204,-3.2072,-3.2105,-3.2162,-3.2236,-3.2205,-3.2232,-3.2222,-3.2272,-3.2382,-3.2231,-3.2232,-3.226,-3.251,-3.2536,-3.2558,-3.2365,-3.2368,-3.2371,-3.2508,0,-3.1901,-3.2016,-3.2005,-3.2115,-3.2168,-3.2133,-3.2191,-3.2218,-3.2224,-3.2271,-3.2278,-3.2331,-3.2285,-3.2301,-3.2349,-3.2359,-3.2432,-3.2348,-3.2419,-3.2422,-3.2413,-3.2581,-3.2609,-3.2737,-3.2525,-3.2528,-3.253,0,-3.2068,-3.2106,-3.2222,-3.2247,-3.2269,-3.2322,-3.2367,-3.2411,-3.2442,-3.2443,-3.2474,-3.2456,-3.2525,-3.2463,-3.2559,-3.2502,-3.2531,-3.254,-3.2545,-3.2552,-3.2483,-3.2594,-3.2778,-3.2798,-3.2558,-3.2555,-3.2553,0,-3.2183,-3.2264,-3.2344,-3.2362,-3.2394,-3.2432,-3.2447,-3.2474,-3.2505,-3.2545,-3.2565,-3.2612,-3.2639,-3.2677,-3.2672,-3.2628,-3.2771,-3.2709,-3.2775,-3.2775,-3.2807,-3.2806,-3.2999,-3.2824,-3.2823,-3.2823,-3.2823,0,-3.233,-3.2403,-3.2397,-3.2446,-3.2527,-3.2513,-3.2594,-3.2605,-3.2629,-3.2681,-3.2653,-3.2703,-3.2693,-3.2743,-3.274,-3.2821,-3.2833,-3.2837,-3.2836,-3.284,-3.284,-3.2859,-3.2851,-3.2828,-3.2827,-3.2826,-3.2825,0,-3.2474,-3.2472,-3.2557,-3.258,-3.2588,-3.2646,-3.2666,-3.2714,-3.2717,-3.2783,-3.2798,-3.2804,-3.2862,-3.2861,-3.2926,-3.2924,-3.3024,-3.3012,-3.3013,-3.3011,-3.3078,-3.3072,-3.3292,-3.3321,-3.3125,-3.3127,-3.3129,0,-3.2568,-3.2623,-3.2651,-3.2684,-3.2701,-3.2754,-3.2785,-3.2775,-3.2809,-3.2848,-3.2891,-3.2946,-3.2989,-3.3083,-3.3094,-3.3144,-3.3134,-3.3208,-3.3142,-3.3145,-3.3137,-3.3134,-3.314,-3.3221,-3.3223,-3.3225,-3.3226,0,-3.2736,-3.2733,-3.2778,-3.2824,-3.2862,-3.2898,-3.2931,-3.296,-3.2953,-3.2993,-3.3051,-3.3085,-3.3152,-3.3207,-3.3256,-3.3272,-3.325,-3.3247,-3.3265,-3.3271,-3.327,-3.3273,-3.305,-3.3242,-3.3241,-3.3239,-3.3238,-3.3238,-3.2858,-3.2906,-3.2934,-3.2986,-3.301,-3.3042,-3.3088,-3.3097,-3.3145,-3.3198,-3.3189,-3.3254,-3.3285,-3.3348,-3.3369,-3.3421,-3.3396,-3.3422,-3.3429,-3.3435,-3.3444,-3.3261,-3.343,-3.343,-3.3429,-3.3429,-3.3428,0,-3.3026,-3.3042,-3.309,-3.3137,-3.3179,-3.3152,-3.3188,-3.3225,-3.3282,-3.3312,-3.3356,-3.3423,-3.3477,-3.3493,-3.3545,-3.3584,-3.3575,-3.3598,-3.3596,-3.36,-3.3463,-3.3442,-3.3605,-3.3605,-3.3604,-3.3604,-3.3604,-3.3604,-3.3118,-3.3198,-3.3198,-3.329,-3.3306,-3.3369,-3.3392,-3.3422,-3.3446,-3.3522,-3.3567,-3.3576,-3.3601,-3.3655,-3.3704,-3.3707,-3.3728,-3.3756,-3.3756,-3.3627,-3.361,-3.3593,-3.3574,-3.3761,-3.3761,-3.3889,-3.389,-3.3891]},{"header":{"parameterUnit":"m.s-1","parameterCategory":1,"la1":30.2991,"la2":30.254,"lo1":-89.0895,"lo2":-89.0444,"dy":0.0017,"dx":0.0017,"nx":28,"ny":28,"refTime":"2024-02-07T03:00:00:Z","depth":0,"parameterNumber":3,"parameterNumberName":"V-component_of_WINDS"},"data":[0,0,0,0,0,0,0,0,0,0,0,0,0,0,0,0,0,0,0,0,0,0,0,0,0,0,0,0,0,0,0,0,0,0,0,0,0,0,0,0,0,0,0,0,0,0,0,0,0,0,0,0,0,0,0,0,0,0,-0.6981,-0.698,0,-0.6929,-0.6929,-0.6928,-0.6885,-0.6885,-0.6884,-0.6884,-0.683,-0.6829,-0.6828,0,0,0,0,0,0,0,0,0,0,0,0,0,-0.7041,-0.704,-0.6981,-0.698,-0.6979,-0.6929,-0.6929,-0.6928,-0.6885,-0.6885,-0.6884,-0.6884,-0.6831,-0.6829,-0.6828,0,0,0,0,0,0,0,0,0,0,0,0,0,-0.7004,-0.7039,-0.6981,-0.6952,-0.6949,-0.6929,-0.6928,-0.6928,-0.6886,-0.6885,-0.6884,-0.6884,-0.6831,-0.683,-0.6828,-0.6832,0,0,-0.6823,-0.6823,0,0,0,0,0,0,0,0,-0.7007,-0.7002,-0.6957,-0.6954,-0.6951,-0.6913,-0.693,-0.6896,-0.6886,-0.691,-0.6884,-0.6883,-0.6858,-0.6854,-0.6846,-0.683,-0.6827,-0.6823,-0.6822,-0.6822,-0.6821,0,0,0,0,0,0,0,-0.7009,-0.7004,-0.696,-0.6956,-0.6953,-0.6941,-0.6935,-0.6923,-0.6888,-0.6908,-0.6904,-0.6899,-0.6856,-0.6848,-0.6845,-0.6827,-0.6823,-0.6822,-0.6821,-0.682,-0.6809,-0.681,0,0,0,0,0,0,-0.7016,-0.7007,-0.6962,-0.6959,-0.6978,-0.6941,-0.6934,-0.6926,-0.6888,-0.6882,-0.6899,-0.6897,-0.6851,-0.6847,-0.6843,-0.6844,-0.6822,-0.682,-0.6819,-0.6809,-0.6809,-0.681,0,0,0,0,0,0,-0.7018,-0.7013,-0.6964,-0.6982,-0.6975,-0.6941,-0.6931,-0.6925,-0.6916,-0.6882,-0.6876,-0.6897,-0.685,-0.6845,-0.6835,-0.6842,-0.682,-0.6818,-0.6808,-0.6809,-0.681,-0.6848,0,0,0,0,0,0,-0.702,-0.7013,-0.7015,-0.6982,-0.6974,-0.6958,-0.6932,-0.6925,-0.6914,-0.691,-0.6878,-0.6872,-0.6849,-0.6837,-0.6833,-0.6839,-0.6817,-0.6807,-0.6808,-0.6809,-0.6846,-0.685,-0.6853,0,0,0,0,0,-0.7022,-0.7028,-0.7016,-0.701,-0.6975,-0.6958,-0.6953,-0.6927,-0.6915,-0.6916,-0.6894,-0.6874,-0.6842,-0.6837,-0.6832,-0.6837,-0.6807,-0.6808,-0.6809,-0.6844,-0.6849,-0.6853,0,0,0,0,0,0,-0.7063,-0.7023,-0.7009,-0.7005,-0.6985,-0.6951,-0.6952,-0.6933,-0.6916,-0.6914,-0.6881,-0.6874,-0.6867,-0.6851,-0.6846,-0.6839,-0.6821,-0.6822,-0.6849,-0.6854,-0.6858,-0.6861,-0.6816,0,0,0,0,0,-0.7071,-0.7061,-0.7027,-0.7026,-0.7017,-0.6986,-0.6978,-0.6959,-0.6937,-0.6929,-0.6906,-0.6885,-0.687,-0.6861,-0.6846,-0.6843,-0.6835,-0.6844,-0.6848,-0.6852,-0.6852,-0.6848,-0.6852,-0.6814,-0.6814,-0.6814,0,0,-0.7089,-0.7066,-0.7061,-0.7034,-0.7017,-0.7006,-0.698,-0.697,-0.6961,-0.6927,-0.6916,-0.6899,-0.6873,-0.6867,-0.6863,-0.6853,-0.6861,-0.6853,-0.6856,-0.6855,-0.685,-0.6854,-0.6857,-0.6815,-0.6815,-0.6815,0,0,-0.7115,-0.7097,-0.7094,-0.7077,-0.7051,-0.703,-0.703,-0.6998,-0.6985,-0.6974,-0.6947,-0.6937,-0.6912,-0.6895,-0.6883,-0.6902,-0.6882,-0.6897,-0.6917,-0.6914,-0.6917,-0.6919,-0.6925,-0.6928,-0.6898,-0.6898,-0.6898,0,-0.714,-0.7123,-0.7095,-0.7086,-0.7075,-0.7043,-0.7039,-0.7024,-0.6994,-0.6987,-0.6976,-0.6944,-0.6925,-0.6913,-0.6918,-0.691,-0.6907,-0.6901,-0.6919,-0.6921,-0.6923,-0.6928,-0.693,-0.69,-0.69,-0.69,-0.69,0,-0.7155,-0.7144,-0.7144,-0.7116,-0.7105,-0.7099,-0.7069,-0.706,-0.7042,-0.7022,-0.701,-0.6986,-0.6964,-0.696,-0.6943,-0.6946,-0.6941,-0.6925,-0.6907,-0.6929,-0.6933,-0.6935,-0.6903,-0.6902,-0.6902,-0.6901,0,0,-0.7205,-0.7161,-0.7162,-0.7149,-0.7117,-0.7108,-0.71,-0.7079,-0.7072,-0.7052,-0.7044,-0.7024,-0.7009,-0.6995,-0.6975,-0.6972,-0.6987,-0.6957,-0.6956,-0.6963,-0.6989,-0.7,-0.7003,-0.6974,-0.6975,-0.6975,-0.699,0,-0.7226,-0.7211,-0.7184,-0.7177,-0.7166,-0.7135,-0.7128,-0.7108,-0.7089,-0.7076,-0.7054,-0.704,-0.7022,-0.7014,-0.7009,-0.6987,-0.6992,-0.6985,-0.6966,-0.6965,-0.6973,-0.7005,-0.7018,-0.7034,-0.6992,-0.6992,-0.6992,0,-0.7248,-0.723,-0.7222,-0.7191,-0.7185,-0.7179,-0.7157,-0.7146,-0.7122,-0.7108,-0.7092,-0.707,-0.7059,-0.7043,-0.7027,-0.7023,-0.7013,-0.7001,-0.7001,-0.6997,-0.698,-0.7002,-0.7038,-0.704,-0.6995,-0.6995,-0.6995,0,-0.7285,-0.7259,-0.725,-0.724,-0.7203,-0.72,-0.7184,-0.7159,-0.7148,-0.7129,-0.7121,-0.7101,-0.709,-0.7074,-0.7047,-0.7038,-0.7033,-0.7015,-0.7021,-0.7022,-0.7021,-0.7022,-0.7055,-0.7016,-0.7016,-0.7016,-0.7016,0,-0.7311,-0.7307,-0.7266,-0.7261,-0.7255,-0.7225,-0.722,-0.7201,-0.7179,-0.7169,-0.7141,-0.7132,-0.7097,-0.7083,-0.7062,-0.7051,-0.7046,-0.7034,-0.7029,-0.7037,-0.7038,-0.703,-0.7028,-0.7017,-0.7016,-0.7016,-0.7016,0,-0.7351,-0.7324,-0.7313,-0.7279,-0.727,-0.7267,-0.7237,-0.7231,-0.721,-0.7197,-0.7192,-0.7159,-0.7142,-0.7113,-0.7088,-0.7073,-0.7066,-0.7057,-0.7075,-0.7071,-0.7078,-0.7078,-0.7107,-0.7109,-0.707,-0.707,-0.707,0,-0.7369,-0.7365,-0.7331,-0.7322,-0.7308,-0.7294,-0.7282,-0.7252,-0.7241,-0.7212,-0.7209,-0.7189,-0.7172,-0.7146,-0.7119,-0.7099,-0.7088,-0.71,-0.7085,-0.7093,-0.7088,-0.7088,-0.7087,-0.7103,-0.7104,-0.7105,-0.7105,0,-0.7404,-0.739,-0.7375,-0.7354,-0.7341,-0.7324,-0.7305,-0.7299,-0.7264,-0.7253,-0.7235,-0.7221,-0.7195,-0.7175,-0.7151,-0.7134,-0.7114,-0.711,-0.711,-0.7118,-0.7128,-0.7122,-0.7083,-0.7109,-0.7109,-0.7109,-0.7108,-0.7108,-0.7433,-0.7427,-0.7402,-0.7386,-0.7368,-0.7351,-0.7342,-0.732,-0.7305,-0.7281,-0.7264,-0.7247,-0.7221,-0.7187,-0.7171,-0.7157,-0.7147,-0.7148,-0.7148,-0.7148,-0.7151,-0.7131,-0.7152,-0.7152,-0.7152,-0.7152,-0.7152,0,-0.7465,-0.7447,-0.7432,-0.7406,-0.7393,-0.7375,-0.7352,-0.7342,-0.7328,-0.7306,-0.729,-0.7268,-0.7249,-0.7221,-0.7199,-0.7193,-0.7183,-0.7189,-0.7188,-0.7185,-0.7161,-0.7163,-0.7197,-0.7197,-0.7197,-0.7197,-0.7197,-0.7197,-0.748,-0.747,-0.7454,-0.7434,-0.7416,-0.7399,-0.7388,-0.7371,-0.7354,-0.7331,-0.7315,-0.7297,-0.7272,-0.7249,-0.723,-0.7222,-0.7215,-0.7223,-0.7212,-0.7191,-0.7186,-0.7182,-0.7184,-0.7222,-0.7222,-0.7237,-0.7237,-0.7237]}]]